Zurück zum Katalog

COSMOS 1275 DEB

AktivPO
NORAD 42195·DEBRIS·🇷🇺 Russia

Gestartet Jun 4, 1981 von Plesetsk Cosmodrome

Loading…

Nächste Überflüge (nächste 24 Stunden)

TLE

AktuellSource: Space-Track

Epoche: Sep 14, 2026, 02:57 UTC

1 42195U 81053TK  26257.12297272  .00000880  00000-0  78226-3 0  9996
2 42195  83.0354 190.0538 0097390 250.6999 108.3609 13.81659351616608

Verfolge COSMOS 1275 DEB in Echtzeit mit AllMySat

Download on the App Store